Tracking 28518 objects as of 1-Mar-2024
HD Live streaming from Space Station
objects crossing your sky now

STARLINK-6197

Track STARLINK-6197 now!
10-day predictions
STARLINK-6197 is classified as:


NORAD ID: 56767
Int'l Code: 2023-078A
Perigee: 577.1 km
Apogee: 581.3 km
Inclination: 70.0 °
Period: 96.1 minutes
Semi major axis: 6950 km
RCS: Unknown
Launch date: May 31, 2023
Source: United States (US)
Launch site: AIR FORCE WESTERN TEST RANGE (AFWTR)
Your satellite tracking list
Your tracking list is empty




NASA's NSSDC Master Catalog

Two Line Element Set (TLE):
1 56767U 23078A   24060.44198476  .00000628  00000-0  60414-4 0  9991
2 56767  69.9992  68.4173 0003045 270.0401  90.0410 14.98330631 41458
Source of the keplerian elements: AFSPC